Starlink 1269

operational
NORAD ID: 45197 Int'l Des: 2020-012 Owner: SPXS Country: US Constellation: starlink
LEOCIRCULARSTARLINK_TYPE

Starlink 1269について

説明を読み込み中...

リアルタイム位置

3D地球を読み込み中...

次回通過

高度履歴

Altitude vs Time

uPlot chart will show altitude changes over time

軌道要素

1 45197U 20012V 25352.59032517 -.00001908 00000-0 -10920-3 0 9995
2 45197 53.0550 50.6875 0001175 83.1929 276.9193 15.06400954322584
Epoch: Dec 18, 2025 • Age: 16 hours

現在のステータス

高度 566.4 km
速度 7.58 km/s
衛星直下点 -52.86°S, 135.6°E
打ち上げ日 Feb 17, 2020
運用期間 5.8 years
タイプ internet

技術仕様

分類 Payload
質量 260.00 kg
乾燥質量 248.00 kg
総質量 260.00 kg
長さ 0.20 m
直径 2.80 m
スパン 9.00 m
形状 Box + pan
製造者 SPXS
バスタイプ Starlink
フェーズステータス In Orbit
所有者/国 SPXS/US

大規模コンステレーション

Loading constellations...